Location: Caltech
(34.1382°N, 118.1253°W)
Time: 20:06:41
(UTC-07:00)

Cosmos 2219 Rocket - Visible Passes

Search period start: 27 August 2014 00:00
Search period end: 06 September 2014 00:00
Orbit: 829 x 846 km, 71.0° (Epoch: 25 August)

Date Brightness Start Highest point End Pass type
(mag) Time Alt. Az. Time Alt. Az. Time Alt. Az.
30 Aug 3.5 05:50:56 10° S 05:56:10 44° ESE 06:01:25 10° NE visible
31 Aug 3.6 05:34:48 10° S 05:39:56 40° ESE 05:45:06 10° NE visible
01 Sep 3.7 05:18:40 10° S 05:23:43 37° ESE 05:28:47 10° NE visible
02 Sep 3.8 05:02:34 10° SSE 05:07:29 34° ESE 05:12:27 10° NE visible
03 Sep 3.9 04:46:28 10° SSE 04:51:16 31° ESE 04:56:06 10° NE visible
04 Sep 4.0 04:30:23 10° SSE 04:35:03 28° ESE 04:39:45 10° NE visible
05 Sep 4.0 04:14:20 10° SSE 04:18:51 26° ESE 04:23:23 10° NE visible
05 Sep 2.9 05:57:31 10° SW 06:02:34 35° WNW 06:07:39 10° N visible
